GW2440 Weather Reports


Display with metric or nautical units.
time (UTC)temp
F
wind
direction
speed
MPH
gust
MPH
rain 1hr
in
rain 24hr
in
rain mn
in
humidity
%
barometer
mb
20260904024308 79 158 0.0 0.0 0.00 0.14 0.14 96 1016.9
20260904023805 79 168 0.0 0.0 0.00 0.14 0.14 96 1016.2
20260904023300 79 97 2.0 3.0 0.00 0.14 0.14 96 1016.5
20260904022759 79 83 2.0 2.0 0.00 0.14 0.14 96 1016.5
20260904022256 80 121 0.0 1.0 0.00 0.14 0.14 97 1016.9
20260904021753 80 145 2.0 2.0 0.00 0.14 0.14 97 1016.5
20260904021247 80 144 1.0 2.0 0.00 0.14 0.14 97 1016.5
20260904020743 80 181 1.0 2.0 0.00 0.14 0.14 97 1016.5
20260904020242 80 153 1.0 1.0 0.00 0.14 0.14 98 1016.9
20260904015741 80 148 0.0 1.0 0.00 0.14 0.14 97 1016.9
20260904015237 80 100 1.0 2.0 0.00 0.14 0.14 97 1016.9
20260904014735 80 114 1.0 2.0 0.00 0.14 0.14 98 1016.9
20260904014230 80 129 2.0 2.0 0.00 0.14 0.14 98 1016.5
20260904013726 80 86 2.0 2.0 0.00 0.14 0.14 98 1016.5
20260904013222 80 128 2.0 2.0 0.00 0.14 0.14 98 1016.9
20260904012717 80 39 1.0 1.0 0.00 0.14 0.14 99 1016.9
20260904012211 80 116 0.0 1.0 0.00 0.14 0.14 99 1016.9
20260904011711 80 66 2.0 2.0 0.00 0.14 0.14 99 1016.9
20260904011207 81 85 1.0 1.0 0.00 0.14 0.14 98 1016.5
20260904010707 81 96 1.0 2.0 0.00 0.14 0.14 98 1016.5
20260904010204 81 52 1.0 2.0 0.00 0.14 0.14 98 1016.5
20260904005659 81 57 1.0 2.0 0.00 0.14 0.14 98 1016.5
20260904005155 81 84 3.0 3.0 0.00 0.14 0.14 98 1016.5
20260904004649 81 85 3.0 3.0 0.00 0.14 0.14 98 1016.5
20260904004143 81 168 0.0 1.0 0.00 0.14 0.14 98 1016.5
20260904003634 81 104 0.0 0.0 0.00 0.14 0.14 98 1016.5
20260904003130 81 149 0.0 0.0 0.00 0.14 0.14 98 1016.5
20260904002626 81 124 1.0 1.0 0.00 0.14 0.14 98 1016.5
20260904002126 81 149 0.0 0.0 0.00 0.14 0.14 98 1016.5
20260904001621 81 126 3.0 5.0 0.00 0.14 0.14 97 1016.2
20260904001120 81 122 0.0 0.0 0.00 0.14 0.14 97 1016.2
20260904000615 81 87 2.0 2.0 0.00 0.14 0.14 97 1015.8
20260904000111 81 132 1.0 2.0 0.00 0.14 0.14 97 1016.2
20260903235610 81 70 1.0 2.0 0.00 0.14 0.14 97 1016.2
20260903235107 81 55 1.0 2.0 0.00 0.14 0.14 97 1016.2
20260903234601 81 81 2.0 2.0 0.00 0.14 0.14 96 1016.2
20260903234057 81 60 1.0 1.0 0.00 0.14 0.14 96 1016.2
20260903233553 81 95 2.0 2.0 0.00 0.14 0.14 96 1016.2
20260903233048 82 104 3.0 5.0 0.00 0.14 0.14 96 1016.2
20260903232543 82 117 3.0 3.0 0.00 0.14 0.14 96 1016.2
20260903232039 82 143 3.0 3.0 0.00 0.14 0.14 96 1016.2
20260903231533 82 193 1.0 1.0 0.00 0.14 0.14 96 1016.2
20260903231027 82 162 0.0 1.0 0.00 0.14 0.14 95 1015.8
20260903230524 82 148 1.0 2.0 0.00 0.14 0.14 95 1015.8
20260903230022 82 157 1.0 1.0 0.00 0.14 0.14 95 1015.8
20260903225520 82 166 3.0 3.0 0.00 0.14 0.14 95 1015.8
20260903225016 82 64 3.0 5.0 0.00 0.14 0.14 94 1015.8
20260903224512 82 78 1.0 3.0 0.00 0.14 0.14 94 1015.8
20260903224008 82 92 5.0 7.0 0.00 0.14 0.14 94 1016.2
20260903223507 82 90 1.0 2.0 0.00 0.14 0.14 94 1015.8
20260903223006 82 123 1.0 1.0 0.00 0.14 0.14 94 1015.5
20260903222501 82 45 3.0 5.0 0.00 0.14 0.14 93 1015.8
20260903222000 82 60 2.0 2.0 0.00 0.14 0.14 94 1015.8
20260903221455 82 151 1.0 2.0 0.00 0.14 0.14 94 1015.8
20260903220953 82 87 1.0 2.0 0.00 0.14 0.14 94 1015.5
20260903220447 82 109 3.0 5.0 0.00 0.14 0.14 94 1015.5
20260903215944 82 47 5.0 6.0 0.00 0.14 0.14 93 1015.2
20260903215442 82 122 2.0 2.0 0.00 0.14 0.14 94 1015.2
20260903214939 82 41 5.0 7.0 0.00 0.14 0.14 94 1015.2
20260903214435 83 49 6.0 7.0 0.00 0.14 0.14 94 1015.2
20260903213935 83 61 4.0 7.0 0.00 0.14 0.14 93 1015.5
20260903213431 83 61 2.0 2.0 0.00 0.14 0.14 93 1015.2
20260903212927 83 98 2.0 6.0 0.00 0.14 0.14 93 1015.2
20260903212422 82 69 1.0 1.0 0.00 0.14 0.14 94 1015.5
20260903211922 82 55 3.0 5.0 0.00 0.14 0.14 94 1015.2
20260903211418 82 103 5.0 6.0 0.00 0.14 0.14 93 1015.2
20260903210914 82 38 3.0 3.0 0.00 0.14 0.14 93 1015.2
20260903210413 82 64 1.0 2.0 0.00 0.14 0.14 94 1015.2
20260903205909 82 50 6.0 8.0 0.00 0.14 0.14 93 1015.2
20260903205408 82 37 4.0 6.0 0.00 0.14 0.14 93 1014.8
20260903204903 82 46 3.0 3.0 0.00 0.14 0.14 93 1014.8
20260903204359 82 54 6.0 7.0 0.00 0.14 0.14 93 1015.2
20260903203854 83 63 7.0 8.0 0.00 0.14 0.14 94 1015.2
20260903203350 82 43 5.0 5.0 0.00 0.14 0.14 93 1014.8
20260903202849 82 26 5.0 7.0 0.00 0.14 0.14 93 1014.8
20260903202346 83 40 5.0 6.0 0.00 0.14 0.14 93 1015.2
20260903201845 83 68 2.0 2.0 0.00 0.14 0.14 93 1015.2
20260903201340 83 86 1.0 1.0 0.00 0.14 0.14 93 1015.5
20260903200838 82 50 4.0 6.0 0.00 0.14 0.14 94 1015.8
20260903200329 83 93 3.0 3.0 0.00 0.14 0.14 93 1015.5
20260903195824 83 93 3.0 3.0 0.00 0.14 0.14 92 1015.5
20260903195320 83 52 3.0 5.0 0.00 0.14 0.14 92 1015.8
20260903194814 83 63 4.0 6.0 0.00 0.14 0.14 92 1016.2
20260903194311 83 39 3.0 5.0 0.00 0.14 0.14 92 1015.8
20260903193806 83 71 3.0 5.0 0.00 0.14 0.14 92 1015.8
20260903193302 83 59 4.0 5.0 0.00 0.14 0.14 93 1015.8
20260903192757 83 49 5.0 6.0 0.00 0.14 0.14 92 1016.2
20260903192253 83 72 4.0 5.0 0.00 0.14 0.14 92 1016.2
20260903191749 83 35 5.0 9.0 0.00 0.14 0.14 92 1016.5
20260903191245 83 60 9.0 9.0 0.00 0.14 0.14 92 1016.2
20260903190739 83 96 2.0 2.0 0.00 0.14 0.14 92 1016.2
20260903190238 84 59 2.0 3.0 0.00 0.14 0.14 92 1016.2
20260903185733 84 83 5.0 6.0 0.00 0.14 0.14 92 1016.2
20260903185228 84 52 5.0 6.0 0.00 0.14 0.14 92 1016.2
20260903184725 83 48 4.0 5.0 0.00 0.14 0.14 93 1016.2
20260903184220 83 83 5.0 5.0 0.00 0.14 0.14 93 1016.5
20260903183721 83 35 7.0 8.0 0.00 0.14 0.14 93 1016.9
20260903183215 83 37 7.0 8.0 0.00 0.14 0.14 92 1016.5
20260903182713 84 55 5.0 7.0 0.00 0.14 0.14 92 1016.5
20260903182209 84 66 3.0 3.0 0.00 0.14 0.14 92 1016.5
20260903181707 85 82 9.0 9.0 0.00 0.14 0.14 91 1016.5
20260903181202 85 41 5.0 6.0 0.00 0.14 0.14 89 1016.5
20260903180658 85 49 1.0 2.0 0.00 0.14 0.14 88 1016.5
20260903180152 84 61 4.0 6.0 0.00 0.14 0.14 89 1016.9
20260903175650 84 77 4.0 6.0 0.00 0.14 0.14 92 1016.9
20260903175145 84 164 3.0 3.0 0.00 0.14 0.14 90 1016.9
20260903174639 82 82 4.0 6.0 0.00 0.14 0.14 94 1016.9
20260903174134 82 44 5.0 7.0 0.00 0.14 0.14 95 1016.5
20260903173629 82 38 5.0 5.0 0.00 0.14 0.14 96 1016.9
20260903173126 82 59 5.0 6.0 0.00 0.14 0.14 95 1016.9
20260903172625 83 46 3.0 3.0 0.00 0.14 0.14 95 1016.9
20260903172121 82 82 2.0 5.0 0.00 0.14 0.14 94 1017.2
20260903171621 81 34 4.0 5.0 0.00 0.14 0.14 96 1017.2
20260903171117 81 48 3.0 5.0 0.00 0.14 0.14 96 1017.5
20260903170615 81 89 2.0 2.0 0.00 0.14 0.14 96 1016.9
20260903170111 81 56 4.0 6.0 0.00 0.14 0.14 96 1017.5
20260903165609 81 45 3.0 5.0 0.00 0.14 0.14 96 1017.5
20260903165104 81 59 1.0 1.0 0.00 0.14 0.14 95 1017.2
20260903164559 81 68 2.0 2.0 0.00 0.14 0.14 96 1017.9
20260903164055 81 120 0.0 1.0 0.00 0.14 0.14 96 1017.5
20260903163555 81 78 5.0 6.0 0.00 0.14 0.14 96 1017.5
20260903163051 81 93 4.0 5.0 0.00 0.14 0.14 94 1017.9
20260903162547 81 168 1.0 1.0 0.00 0.14 0.14 95 1017.9
20260903162042 82 97 2.0 3.0 0.00 0.14 0.14 95 1017.9
20260903161538 81 79 3.0 3.0 0.00 0.14 0.14 94 1017.9
20260903161033 81 67 4.0 6.0 0.00 0.14 0.14 97 1017.5
20260903160532 81 91 3.0 5.0 0.00 0.14 0.14 98 1017.9
20260903160027 80 96 2.0 2.0 0.00 0.14 0.14 98 1017.5
20260903155520 80 60 3.0 3.0 0.00 0.14 0.14 98 1017.5
20260903155016 80 64 3.0 3.0 0.00 0.14 0.14 99 1017.9
20260903154512 80 52 2.0 2.0 0.00 0.14 0.14 99 1017.9
20260903154008 79 44 3.0 3.0 0.00 0.14 0.14 99 1017.5
20260903153503 79 70 2.0 2.0 0.00 0.14 0.14 99 1017.5
20260903152959 79 48 2.0 3.0 0.00 0.14 0.14 99 1017.5
20260903152454 78 51 5.0 6.0 0.00 0.14 0.14 99 1017.9
20260903151950 78 65 2.0 3.0 0.00 0.14 0.14 99 1017.9
20260903151444 78 58 3.0 3.0 0.00 0.14 0.14 99 1017.9
20260903150940 78 48 1.0 2.0 0.00 0.14 0.14 99 1017.9
20260903150439 77 25 3.0 3.0 0.00 0.14 0.14 99 1017.5
20260903145934 77 56 2.0 2.0 0.00 0.14 0.14 99 1017.9
20260903145430 77 39 3.0 3.0 0.07 0.14 0.14 99 1017.5
20260903144924 77 91 1.0 1.0 0.07 0.14 0.14 99 1017.5
20260903144424 77 81 2.0 3.0 0.07 0.13 0.13 99 1017.9
20260903143919 77 62 3.0 3.0 0.12 0.13 0.13 99 1017.2
20260903143415 77 51 2.0 3.0 0.17 0.12 0.12 99 1017.9
20260903142911 77 84 2.0 2.0 0.12 0.11 0.11 99 1017.5
20260903142401 77 26 3.0 3.0 0.07 0.09 0.09 99 1017.9
20260903141857 77 69 4.0 5.0 0.07 0.09 0.09 99 1017.5
20260903141353 77 80 2.0 2.0 0.00 0.08 0.08 99 1017.5
20260903140848 77 73 2.0 2.0 0.00 0.08 0.08 99 1017.5
20260903140343 77 38 2.0 2.0 0.05 0.08 0.08 99 1017.5
20260903135839 77 43 2.0 2.0 0.05 0.08 0.08 99 1017.5
20260903135334 77 45 3.0 3.0 0.00 0.07 0.07 99 1017.5
20260903134833 77 58 2.0 3.0 0.00 0.07 0.07 99 1017.2
20260903134328 77 62 5.0 6.0 0.00 0.07 0.07 99 1017.2
20260903133825 78 69 2.0 2.0 0.00 0.07 0.07 99 1016.9
20260903133321 78 53 1.0 2.0 0.00 0.07 0.07 99 1017.2
20260903132816 78 37 2.0 2.0 0.07 0.07 0.07 99 1017.2
20260903132312 77 57 1.0 2.0 0.07 0.07 0.07 99 1017.2
20260903131807 78 25 2.0 2.0 0.00 0.06 0.06 99 1016.9
20260903131306 77 79 2.0 2.0 0.00 0.06 0.06 99 1017.2
20260903130801 77 87 2.0 3.0 0.00 0.06 0.06 99 1017.2
20260903130256 77 63 2.0 2.0 0.00 0.06 0.06 99 1016.9
20260903125754 77 43 2.0 2.0 0.00 0.06 0.06 99 1016.9
20260903125250 77 66 1.0 1.0 0.00 0.06 0.06 99 1016.9
20260903124749 78 17 5.0 6.0 0.00 0.06 0.06 99 1016.9
20260903124245 78 44 2.0 2.0 0.00 0.06 0.06 99 1016.9
20260903123743 78 30 5.0 5.0 0.05 0.06 0.06 99 1016.9
20260903123243 78 48 1.0 2.0 0.05 0.06 0.06 99 1016.9
20260903122741 78 56 3.0 5.0 0.12 0.06 0.06 99 1017.2
20260903122236 78 114 0.0 0.0 0.19 0.05 0.05 99 1016.9
20260903121734 78 45 3.0 5.0 0.24 0.04 0.04 99 1017.2
20260903121231 78 39 3.0 3.0 0.12 0.02 0.02 99 1016.9
20260903120731 77 58 2.0 2.0 0.00 0.00 0.00 99 1016.9
20260903120224 77 58 2.0 2.0 0.00 0.00 0.00 99 1016.5
20260903115723 77 50 0.0 0.0 0.00 0.00 0.00 99 1016.9
20260903115218 77 38 0.0 0.0 0.00 0.00 0.00 99 1016.9
20260903114712 77 115 0.0 0.0 0.00 0.00 0.00 99 1016.9
20260903114208 77 145 0.0 0.0 0.00 0.00 0.00 99 1016.9
20260903113703 77 356 0.0 0.0 0.00 0.00 0.00 99 1016.5
20260903113159 77 18 0.0 0.0 0.00 0.00 0.00 99 1016.2
20260903112655 77 15 0.0 0.0 0.00 0.00 0.00 99 1016.5
20260903112150 77 114 0.0 0.0 0.00 0.00 0.00 99 1016.5
20260903111649 77 189 0.0 0.0 0.00 0.00 0.00 99 1016.2
20260903111144 77 358 0.0 0.0 0.00 0.00 0.00 99 1016.2
20260903110641 77 346 0.0 0.0 0.00 0.00 0.00 99 1016.2
20260903110136 77 97 0.0 0.0 0.00 0.00 0.00 99 1016.2
20260903105630 77 97 0.0 0.0 0.00 0.00 0.00 99 1015.8
20260903105120 77 97 0.0 0.0 0.00 0.00 0.00 99 1015.8
20260903104619 77 97 0.0 0.0 0.00 0.00 0.00 99 1016.2
20260903104115 77 97 0.0 0.0 0.00 0.00 0.00 99 1015.8
20260903103611 77 97 0.0 0.0 0.00 0.00 0.00 99 1015.5
20260903103107 77 97 0.0 0.0 0.00 0.00 0.00 99 1015.5
20260903102602 77 97 0.0 0.0 0.00 0.00 0.00 99 1015.8
20260903102101 77 97 0.0 0.0 0.00 0.00 0.00 99 1015.5
20260903101555 77 97 0.0 0.0 0.00 0.00 0.00 99 1015.5
20260903101051 77 97 0.0 0.0 0.00 0.00 0.00 99 1015.5
20260903100551 77 97 0.0 0.0 0.00 0.00 0.00 99 1015.5
20260903100050 77 97 0.0 0.0 0.00 0.00 0.00 99 1015.5
20260903095548 77 97 0.0 0.0 0.00 0.00 0.00 99 1015.5
20260903095043 77 97 0.0 0.0 0.00 0.00 0.00 99 1015.2
20260903094542 77 97 0.0 0.0 0.00 0.00 0.00 99 1015.2
20260903094038 77 97 0.0 0.0 0.00 0.00 0.00 99 1015.2
20260903093533 77 97 0.0 0.0 0.00 0.00 0.00 99 1015.5
20260903093029 77 97 0.0 0.0 0.00 0.00 0.00 99 1015.2
20260903092522 77 96 0.0 0.0 0.00 0.00 0.00 99 1015.5
20260903092016 78 116 0.0 0.0 0.00 0.00 0.00 99 1015.5
20260903091514 78 112 0.0 0.0 0.00 0.00 0.00 99 1015.2
20260903091010 77 133 0.0 0.0 0.00 0.00 0.00 99 1015.2
20260903090506 77 146 0.0 0.0 0.00 0.00 0.00 99 1015.2
20260903090003 77 147 0.0 0.0 0.00 0.00 0.00 99 1015.5
20260903085502 77 156 0.0 0.0 0.00 0.00 0.00 99 1015.2
20260903084958 77 156 0.0 0.0 0.00 0.00 0.00 99 1015.5
20260903084455 77 78 0.0 0.0 0.00 0.00 0.00 99 1015.2
20260903083950 78 83 0.0 0.0 0.00 0.00 0.00 99 1015.2
20260903083447 78 33 0.0 0.0 0.00 0.00 0.00 99 1015.2
20260903082946 77 33 0.0 0.0 0.00 0.00 0.00 99 1015.2
20260903082441 77 33 0.0 0.0 0.00 0.00 0.00 99 1015.2
20260903081935 78 33 0.0 0.0 0.00 0.00 0.00 99 1015.2
20260903081431 78 32 0.0 0.0 0.00 0.00 0.00 99 1015.2
20260903080927 78 33 0.0 0.0 0.00 0.00 0.00 99 1015.2
20260903080423 78 32 0.0 0.0 0.00 0.00 0.00 99 1015.2
20260903075919 78 32 0.0 0.0 0.00 0.00 0.00 99 1014.8
20260903075415 78 47 0.0 0.0 0.00 0.00 0.00 99 1015.2
20260903074915 78 30 0.0 0.0 0.00 0.00 0.00 99 1014.8
20260903074408 78 78 0.0 0.0 0.00 0.00 0.00 99 1015.2
20260903073904 78 51 1.0 2.0 0.00 0.00 0.00 99 1015.2
20260903073359 78 38 1.0 1.0 0.00 0.00 0.00 99 1015.2
20260903072855 78 24 2.0 2.0 0.00 0.00 0.00 99 1015.5
20260903072351 78 45 2.0 2.0 0.00 0.00 0.00 99 1015.5
20260903071848 78 59 0.0 0.0 0.00 0.00 0.00 99 1015.2
20260903071344 78 38 0.0 0.0 0.00 0.00 0.00 99 1015.2
20260903070839 77 51 0.0 0.0 0.00 0.00 0.00 99 1015.5
20260903070333 77 107 0.0 0.0 0.00 0.00 0.00 99 1015.5
20260903065828 77 107 0.0 0.0 0.00 0.00 0.00 99 1015.5
20260903065327 77 107 0.0 0.0 0.00 0.00 0.00 99 1015.8
20260903064826 77 107 0.0 0.0 0.00 0.00 0.00 99 1015.8
20260903064316 77 68 0.0 0.0 0.00 0.00 0.00 99 1015.8
20260903063807 77 49 0.0 0.0 0.00 0.00 0.00 99 1015.5
20260903063307 77 57 0.0 0.0 0.00 0.00 0.00 99 1015.8
20260903062803 77 62 0.0 0.0 0.00 0.00 0.00 99 1015.8
20260903062301 77 88 0.0 0.0 0.00 0.00 0.00 99 1016.2
20260903061758 77 41 3.0 3.0 0.00 0.00 0.00 99 1016.2
20260903061251 77 40 3.0 3.0 0.00 0.00 0.00 99 1016.2
20260903060747 77 61 0.0 1.0 0.00 0.00 0.00 99 1016.2
20260903060241 77 61 0.0 0.0 0.00 0.00 0.00 99 1016.2
20260903055738 77 46 0.0 0.0 0.00 0.00 0.00 99 1016.2
20260903055237 77 0 0.0 0.0 0.00 0.00 0.00 99 1016.2
20260903054732 77 25 2.0 2.0 0.00 0.00 0.00 99 1016.2
20260903054227 77 36 2.0 3.0 0.00 0.00 0.00 99 1016.2
20260903053724 77 48 1.0 1.0 0.00 0.00 0.00 99 1016.2
20260903053224 77 63 0.0 0.0 0.00 0.00 0.00 99 1016.5
20260903052720 77 57 0.0 0.0 0.00 0.00 0.00 99 1016.5
20260903052215 77 46 3.0 3.0 0.00 0.00 0.00 99 1016.5
20260903051710 77 62 0.0 0.0 0.00 0.00 0.00 99 1016.9
20260903051206 77 36 0.0 0.0 0.00 0.00 0.00 99 1016.9
20260903050701 77 36 0.0 0.0 0.00 0.00 0.00 99 1016.5
20260903050200 77 38 0.0 0.0 0.00 0.00 0.00 99 1016.9
20260903045655 78 48 0.0 0.0 0.00 0.00 0.00 99 1016.9
20260903045151 78 63 0.0 0.0 0.00 0.00 0.00 99 1016.9
20260903044647 78 61 0.0 0.0 0.00 0.00 0.00 99 1016.9
20260903044143 78 42 0.0 0.0 0.00 0.00 0.00 99 1016.9
20260903043640 78 33 0.0 0.0 0.00 0.00 0.00 99 1017.2
20260903043138 78 39 0.0 0.0 0.00 0.00 0.00 99 1017.2
20260903042638 78 42 0.0 0.0 0.00 0.00 0.00 99 1016.9
20260903042133 78 46 0.0 0.0 0.00 0.00 0.00 99 1016.9
20260903041630 78 55 1.0 1.0 0.00 0.00 0.00 99 1017.2
20260903041125 78 65 0.0 0.0 0.00 0.00 0.00 99 1016.9
20260903040624 78 53 0.0 0.0 0.00 0.00 0.00 99 1017.2
20260903040121 78 54 2.0 2.0 0.00 0.00 0.00 99 1016.9
20260903035616 78 97 0.0 0.0 0.00 0.05 0.05 99 1016.9
20260903035112 78 78 0.0 0.0 0.00 0.05 0.05 99 1017.2
20260903034606 78 82 0.0 0.0 0.00 0.05 0.05 99 1017.2
20260903034101 78 156 0.0 0.0 0.00 0.05 0.05 99 1016.9
20260903033557 78 66 0.0 1.0 0.00 0.05 0.05 99 1017.2
20260903033051 78 88 3.0 3.0 0.00 0.05 0.05 99 1017.2
20260903032547 78 67 1.0 2.0 0.00 0.05 0.05 99 1017.2
20260903032042 78 131 0.0 0.0 0.00 0.05 0.05 99 1017.2
20260903031542 78 55 1.0 2.0 0.00 0.05 0.05 99 1017.2
20260903031037 79 101 0.0 1.0 0.00 0.05 0.05 99 1017.2
20260903030532 79 72 1.0 2.0 0.00 0.05 0.05 99 1017.2
20260903030029 79 63 5.0 6.0 0.00 0.05 0.05 99 1017.5
20260903025524 79 46 5.0 5.0 0.00 0.05 0.05 99 1017.5
20260903025020 79 52 3.0 3.0 0.00 0.05 0.05 99 1017.2
20260903024519 79 43 2.0 2.0 0.00 0.05 0.05 99 1016.9